Flag for Canada Weather past 2 weeks in Winnipeg, Manitoba, Canada

Now
36 °F

Chilly.


Feels Like: 29 °F
Forecast: 17 / 34 °F
Wind: 10 mph from Northwest

Location: Winnipeg The Forks

Current Time: Jan 26, 2015 at 7:05:49 AM

Latest Report: Jan 26, 2015 at 6:00 AM


Visibility: N/A

Pressure: 29.61 "Hg

Humidity: 88%

Dew point: 33 °F

Location of WinnipegLocation

Historic Weather in Winnipeg — Graph

°F

Winnipeg temperature yesterday

Maximum temperature yesterday: 26 °F (at 11:00 PM)
Minimum temperature yesterday: 14 °F (at 5:00 AM)
Average temperature yesterday: 18 °F

Past Weeks' High & Low Weather Summary

 TemperatureHumidityPressure
High40 °F (Jan 23, 3:00 PM)100% (Jan 20, 2:00 PM)30.88 "Hg (Jan 20, 2:00 PM)
Low-16 °F (Jan 12, 8:00 AM)50% (Jan 11, 3:00 PM)29.34 "Hg (Jan 17, 3:00 AM)
Average16 °F76%30.03 "Hg
* Reported Jan 11 5:00 AM — Jan 26 5:00 AM, Winnipeg, Weather by CustomWeather, © 2014

Note: Actual official high and low records may vary slightly from our data, if they occured in-between our weather recording intervals... More about our weather records

Advertising

Winnipeg weather history for previous 24 hours

 ConditionsComfort  
Time TempWeatherWind HumidityBarometerVisibility
5:00 AM
Jan 26
36 °FChilly.8 mph81%29.59 "HgN/A
4:00 AM34 °FChilly.6 mph80%29.58 "HgN/A
3:00 AM32 °FChilly.8 mph83%29.57 "HgN/A
2:00 AM30 °FChilly.8 mph85%29.56 "HgN/A
1:00 AM29 °FChilly.12 mph86%29.57 "HgN/A
12:00 AM28 °FChilly.13 mph87%29.59 "HgN/A
11:00 PM
Jan 25
26 °FChilly.18 mph87%29.61 "HgN/A
10:00 PM26 °FChilly.15 mph79%29.67 "HgN/A
9:00 PM22 °FCold.18 mph83%29.70 "HgN/A
8:00 PM21 °FCold.14 mph81%29.77 "HgN/A
7:00 PM20 °FCold.10 mph79%29.83 "HgN/A
6:00 PM19 °FCold.9 mph78%29.88 "HgN/A
5:00 PM20 °FCold.9 mph75%29.94 "HgN/A
4:00 PM20 °FCold.13 mph72%29.97 "HgN/A
3:00 PM19 °FCold.14 mph71%29.97 "HgN/A
2:00 PM19 °FCold.14 mph67%30.00 "HgN/A
1:00 PM19 °FCold.9 mph69%30.05 "HgN/A
12:00 PM17 °FCold.15 mph68%30.08 "HgN/A
11:00 AM18 °FCold.7 mph62%30.09 "HgN/A
10:00 AM16 °FCold.6 mph66%30.07 "HgN/A
9:00 AM15 °FCold.3 mph67%30.08 "HgN/A
8:00 AM15 °FCold.1 mph66%30.08 "HgN/A
7:00 AM14 °FCold.2 mph65%30.09 "HgN/A
Weather by CustomWeather, © 2014

See weather overviewHow to use our weather pages